Temperature
18 18 18 18 18 18 18 18 18 18 18 18 18 18 17 17 17 17 17 17 17 17 17 17 17 17 17 17 17 17 16 16 16 16 16 16 16 16 16 16 15 15 15
18 18 18 18 18 18 18 18 18 18 18 18 18 18 18 17 17 17 17 17 17 17 17 17 17 17 17 17 17 17 16 16 16 16 16 16 16 16 16 16 16 15 15
18 18 18 18 18 18 18 18 18 18 18 18 18 18 18 17 17 17 17 17 17 17 17 17 17 17 16 16 16 16 16 16 16 16 16 16 16 16 16 16 16 15 15
18 18 18 18 18 18 18 18 18 18 18 18 18 18 17 17 17 17 17 17 17 17 17 17 17 16 16 16 16 16 16 16 16 16 16 16 16 16 15 15 15 15 15
18 18 18 18 18 18 18 18 18 18 18 18 18 17 17 17 17 17 17 17 17 17 17 17 17 16 16 16 16 16 16 16 16 16 16 16 16 16 15 15 15 15 15
18 18 18 18 18 18 18 17 18 18 18 18 17 17 17 17 17 17 17 17 17 17 17 17 17 16 16 16 16 16 16 16 16 16 16 15 15 15 15 15 15 15 15
18 18 18 18 18 18 17 17 17 18 18 17 17 17 17 17 17 17 17 17 17 17 17 17 17 16 16 16 16 16 16 15 15 15 15 15 15 15 15 15 15 15 15
18 18 18 17 17 17 17 17 17 17 17 17 17 17 17 17 17 17 17 17 17 17 17 16 16 16 16 16 16 16 16 15 15 15 15 15 15 15 15 15 15 15 15
18 17 17 17 17 17 17 17 17 17 17 17 17 17 17 17 17 16 16 16 16 16 16 16 16 16 16 16 16 16 15 15 15 15 15 15 15 15 15 15 14 14 14
18 17 17 17 17 17 17 17 17 17 17 17 17 17 17 16 16 16 16 16 16 16 16 16 16 16 16 15 15 15 15 15 15 15 15 15 15 14 14 14 14 14 14
18 18 17 17 17 17 17 17 17 17 17 17 17 17 17 16 16 16 15 15 15 15 15 15 15 15 15 15 15 15 15 15 15 14 14 14 14 14 14 14 14 14 14
18 18 17 17 17 17 17 17 17 17 17 17 17 17 16 16 16 16 15 15 15 15 15 15 15 15 15 15 14 14 14 14 14 14 14 14 14 14 14 14 14 14 14
18 18 17 17 17 17 17 17 17 17 17 17 17 16 16 16 16 16 15 15 15 14 14 14 14 14 14 14 14 14 14 14 14 14 14 14 14 14 13 13 13 13 13
18 17 17 17 17 17 17 17 17 17 17 17 16 16 16 16 16 15 15 15 14 14 14 14 13 13 13 13 13 13 13 13 13 13 13 13 13 13 13 13 13 13 13
17 17 17 17 17 17 17 17 17 16 16 16 16 16 16 16 16 15 15 15 15 14 13 13 13 13 13 13 13 13 13 13 13 13 13 13 13 12 12 12 12 12 12
17 17 17 17 16 16 16 16 16 16 16 16 16 16 15 15 15 15 15 15 15 14 13 13 13 13 13 12 12 12 12 12 12 12 12 12 12 12 12 12 12 11 11
17 17 17 16 16 16 16 16 16 16 16 16 15 15 15 15 15 15 15 14 14 14 14 13 12 12 12 12 12 12 12 12 12 12 12 11 11 11 11 11 11 11 11
17 17 16 16 16 16 16 16 16 16 15 15 15 15 15 15 15 14 14 14 14 14 14 13 12 12 12 12 12 12 12 11 11 11 11 11 11 11 11 10 10 10 10
17 16 16 16 16 16 15 15 15 15 15 15 15 15 14 14 14 14 14 14 14 13 13 13 12 12 12 11 11 11 11 11 11 11 11 10 10 10 10 10 10 10 10
16 16 16 16 16 15 15 15 15 15 15 15 14 14 14 14 14 14 14 14 13 13 13 13 12 12 12 11 11 11 11 11 10 10 10 10 10 10 10 10 9 9 9
16 16 16 15 15 15 15 15 15 15 15 14 14 14 14 14 13 13 13 13 13 13 13 12 12 12 11 11 11 11 11 10 10 10 10 10 9 10 9 9 9 9 9
16 16 15 15 15 15 15 14 14 14 14 14 14 14 13 13 13 13 13 13 13 13 12 12 12 12 11 11 11 11 10 10 10 9 10 9 9 9 9 9 9 9 8
16 15 15 15 15 14 14 14 14 14 14 14 13 13 13 13 13 13 12 12 12 12 12 12 12 11 11 11 11 10 10 10 10 9 9 9 9 9 9 8 8 8 8
15 15 15 15 14 14 14 14 14 13 13 13 13 13 13 12 12 12 12 12 12 11 11 11 11 11 11 11 10 10 10 10 9 9 9 9 9 8 8 8 8 8 8
15 15 15 14 14 14 14 13 13 13 13 13 13 12 12 12 12 12 12 12 11 11 11 11 11 11 10 10 10 10 10 9 9 9 9 8 8 8 8 8 8 8 8
15 15 14 14 14 14 13 13 13 13 13 12 12 12 12 12 12 11 11 11 11 11 11 11 10 10 10 10 10 10 9 9 9 9 9 9 8 8 8 8 8 8 7
Wind_Speed
1 1 1 1 1 0 0 1 1 1 1 1 2 4 5 6 6 7 7 10 11 11 11 11 11 11 11 10 10 10 10 10 10 10 10 10 10 9 9 9 9 9 9
2 1 1 1 2 1 1 1 0 0 0 0 1 3 5 6 6 7 7 9 11 12 11 11 11 11 11 11 11 11 10 10 10 10 10 11 11 11 11 10 10 10 10
4 3 2 2 2 2 2 1 0 0 0 0 0 1 3 4 6 7 8 8 9 11 12 12 12 12 12 12 12 12 12 12 11 11 11 11 11 11 11 10 11 11 11
5 3 2 2 2 1 1 1 0 0 0 0 0 1 1 3 4 5 6 7 8 8 11 12 13 13 13 13 13 13 13 13 12 12 12 12 12 12 11 11 11 11 12
5 4 2 2 2 1 1 1 1 1 1 1 1 1 1 1 2 3 4 6 7 7 8 9 11 11 12 13 13 13 13 12 12 12 12 12 12 12 12 11 11 11 11
4 4 2 2 1 1 1 1 1 1 1 1 0 1 0 1 1 2 3 4 5 6 7 7 8 8 10 10 11 11 11 10 10 10 11 10 11 11 11 11 11 11 11
4 3 2 1 1 1 2 2 1 1 1 1 1 1 1 0 0 1 1 1 2 3 3 5 5 5 6 8 9 9 9 9 10 10 10 10 10 10 10 10 11 11 11
2 3 2 1 1 1 1 1 1 1 1 2 2 1 1 1 1 0 0 1 1 1 1 1 1 2 3 3 4 5 6 6 6 7 7 8 9 10 10 11 11 10 11
1 1 1 1 1 2 2 2 2 3 2 1 1 3 2 2 1 1 1 1 2 2 1 1 1 1 1 1 1 2 2 2 3 3 4 6 6 6 7 9 10 10 9
0 1 1 1 1 1 2 2 2 2 3 2 2 1 2 3 2 0 1 2 3 3 2 2 2 2 2 2 2 2 2 2 0 1 2 2 4 4 5 5 6 7 7
1 0 1 1 1 1 1 1 1 2 2 3 2 2 2 1 1 2 1 1 2 3 2 2 3 3 4 4 4 5 5 5 4 3 3 3 2 1 0 1 1 2 2
1 1 0 0 0 0 1 1 1 2 2 2 2 2 2 2 2 2 2 1 1 2 3 3 3 4 5 5 6 7 7 6 6 7 6 6 6 6 5 4 3 2 1
1 1 1 0 0 0 1 1 1 1 1 1 2 2 2 2 2 3 3 2 1 1 2 3 4 5 6 6 7 9 10 10 9 9 9 9 9 9 9 8 8 7 5
1 0 1 1 1 2 2 2 1 1 1 1 1 1 2 2 2 3 4 4 2 1 2 2 3 5 6 7 8 9 10 12 11 11 11 11 12 12 12 11 11 11 10
1 2 2 2 2 3 3 2 2 2 2 1 0 1 1 1 1 2 3 4 4 3 1 1 1 3 5 7 8 9 10 12 12 12 13 14 14 13 12 12 12 13 13
2 3 3 3 3 3 3 3 3 2 3 2 1 2 1 1 1 2 2 2 3 3 2 1 2 2 5 7 9 9 10 12 13 12 13 13 13 13 13 13 14 14 14
3 3 3 3 3 4 3 4 4 3 4 3 3 3 2 2 2 2 2 2 3 4 5 3 2 3 4 6 7 8 9 10 11 13 13 13 13 13 13 13 14 14 14
3 3 4 4 4 4 4 4 4 4 4 4 4 4 3 3 4 3 3 3 3 4 6 6 3 2 3 4 5 6 8 8 9 12 12 12 12 12 12 12 13 13 13
4 4 4 5 4 4 4 4 4 5 5 4 4 4 3 4 4 3 4 4 4 5 5 6 4 2 3 4 5 5 7 6 8 9 10 11 11 11 12 12 12 12 12
5 5 5 5 4 4 4 4 5 5 5 5 4 4 4 4 3 4 4 5 6 6 6 6 5 4 3 3 4 4 4 4 4 6 8 8 9 10 11 10 10 10 11
5 5 5 5 4 4 3 4 4 5 5 5 5 5 4 5 5 4 4 5 7 6 6 6 5 4 3 3 3 3 4 3 3 3 3 4 5 6 7 8 8 8 9
5 5 5 5 4 3 5 5 5 4 4 4 4 4 4 5 6 8 8 8 8 7 7 5 4 5 4 3 3 4 4 3 1 1 2 2 3 3 4 5 6 7 7
5 5 4 4 4 4 5 6 7 5 4 4 3 3 4 4 5 5 8 9 8 7 6 5 6 4 4 4 5 4 3 3 2 1 1 1 1 1 2 3 5 5 5
5 4 4 3 3 3 6 7 8 6 6 5 4 4 4 4 4 5 6 6 6 5 4 4 4 4 4 5 5 5 5 4 3 2 1 1 0 0 1 2 2 3 3
4 3 3 3 3 3 5 7 7 5 5 5 5 4 4 4 5 7 7 7 6 4 7 8 7 6 7 8 8 6 5 3 2 1 1 1 0 0 0 1 2 1 1
4 4 3 2 3 2 3 6 6 4 4 3 3 4 5 5 5 6 6 6 5 3 3 5 6 6 6 6 6 5 4 3 2 1 1 1 1 1 1 1 1 2 2
Wind_Direction
203 264 304 306 304 340 76 59 56 53 56 98 148 167 177 184 187 190 198 201 199 199 200 200 200 201 201 200 201 201 202 202 204 210 210 208 206 207 210 211 213 212 212
206 210 249 276 280 260 223 203 218 312 317 146 190 185 187 192 195 196 206 212 210 207 208 209 208 209 209 209 209 210 210 211 213 216 218 219 217 218 220 220 219 217 216
206 204 207 236 256 255 242 223 235 6 269 185 205 199 194 199 201 206 212 215 216 217 217 219 218 217 217 218 218 219 220 220 221 223 224 224 224 225 227 226 225 225 224
207 197 203 238 252 241 215 210 183 67 325 328 273 241 204 202 208 216 217 215 216 221 226 227 226 225 227 227 225 226 227 226 226 226 229 229 228 227 226 229 231 231 229
202 194 210 234 226 204 226 228 176 178 233 257 247 255 222 216 216 215 216 219 220 223 228 233 235 233 234 235 232 231 231 231 229 229 232 230 227 227 229 231 234 234 232
203 194 208 220 194 174 232 215 194 172 193 207 253 41 41 222 204 211 222 222 227 230 230 234 239 241 241 241 239 237 234 228 226 229 230 227 228 230 230 232 234 237 236
205 190 201 196 182 196 217 197 173 163 175 134 97 35 15 33 172 236 229 217 227 232 227 228 232 236 247 248 247 248 246 238 232 231 229 230 232 231 228 231 233 235 238
211 201 195 199 191 190 198 180 168 164 191 156 145 134 332 347 2 340 68 169 151 126 131 190 213 221 243 253 265 262 253 246 245 239 234 232 233 234 231 231 232 233 233
212 202 204 210 215 197 212 210 193 185 200 205 172 156 166 221 296 13 45 75 78 76 67 74 83 95 131 118 290 298 263 247 243 244 241 235 234 240 244 240 237 235 237
292 193 219 222 219 213 226 229 200 196 189 213 213 208 190 164 173 222 34 63 73 66 55 46 49 60 80 81 63 57 57 39 31 256 262 249 238 239 250 257 251 247 242
357 315 225 218 221 218 213 207 184 186 195 198 194 184 185 157 167 180 198 95 71 55 55 56 53 57 68 73 70 62 59 56 58 58 58 56 52 43 299 268 257 264 249
347 349 19 85 121 196 213 206 183 178 187 184 189 181 171 162 179 176 190 176 117 72 58 57 54 56 67 69 70 71 71 68 65 66 66 69 69 63 54 51 40 39 46
331 322 347 66 73 110 101 118 134 160 172 171 193 203 194 187 166 155 154 157 140 99 65 56 49 61 69 68 69 76 75 76 75 74 72 71 72 69 65 60 51 51 47
244 316 72 73 69 76 86 92 94 103 103 136 183 187 183 194 173 165 162 155 152 118 74 70 53 59 72 76 77 82 79 77 76 77 77 76 74 73 69 64 59 54 50
117 79 78 66 63 68 72 78 77 71 81 83 82 159 178 197 176 173 165 170 166 166 153 110 84 61 82 84 81 85 84 81 80 78 77 77 75 72 67 64 61 57 54
94 86 75 70 65 64 68 75 71 64 74 62 71 84 90 110 122 143 164 163 160 154 147 102 97 93 88 91 86 88 87 85 80 80 78 76 75 74 71 67 64 61 59
103 96 84 74 73 70 70 76 68 65 73 59 56 72 66 75 99 114 126 129 133 133 136 115 94 94 93 95 88 88 86 83 81 80 79 78 78 77 73 69 67 63 61
97 98 95 83 73 70 70 76 75 69 71 64 60 70 63 73 77 85 104 113 125 133 140 135 117 102 98 107 104 95 86 83 81 77 77 76 76 76 72 69 65 63 61
101 89 86 86 80 74 72 72 78 74 71 66 67 75 69 80 79 81 95 106 111 118 124 133 127 105 94 105 101 91 84 76 78 75 73 70 71 71 69 66 63 62 61
104 96 89 85 83 79 77 77 78 76 72 64 63 70 70 80 90 96 103 110 114 113 117 124 123 114 105 105 110 111 101 82 73 68 68 66 66 66 64 63 63 62 61
107 102 94 83 78 80 82 90 87 84 78 71 62 60 69 83 88 97 116 122 123 122 125 126 127 122 121 127 133 133 127 112 81 62 67 53 52 53 49 51 57 59 60
102 96 92 91 80 77 89 96 102 94 86 82 74 58 63 64 80 88 98 108 123 134 140 139 138 142 152 150 137 139 137 129 114 50 83 61 52 53 43 48 50 59 62
110 100 95 94 86 85 96 98 98 99 89 79 75 69 72 65 74 90 90 88 88 100 125 143 146 156 163 169 154 142 136 128 137 141 128 83 43 45 28 41 50 59 61
119 113 107 102 97 98 104 102 98 88 81 69 63 70 82 71 79 100 99 89 79 75 97 126 145 154 154 158 156 151 146 129 105 93 118 117 62 354 4 2 32 51 52
126 122 122 116 111 105 109 111 105 96 88 70 60 62 74 78 83 104 105 101 90 74 76 92 106 116 123 132 140 133 134 135 135 142 140 158 174 211 308 304 318 329 340
138 131 118 112 117 122 129 123 115 112 102 86 62 54 59 74 88 107 115 116 110 97 90 84 80 87 102 119 136 153 160 153 142 175 177 179 173 170 242 270 295 301 291
Height
1559 1559 1560 1560 1561 1561 1562 1563 1563 1564 1564 1564 1565 1565 1566 1566 1566 1567 1568 1568 1569 1569 1570 1571 1571 1572 1573 1574 1574 1575 1576 1577 1578 1578 1579 1580 1581 1582 1582 1583 1584 1585 1585
1559 1560 1560 1561 1561 1562 1562 1563 1563 1564 1564 1564 1565 1565 1566 1566 1566 1567 1567 1568 1569 1569 1570 1570 1571 1572 1572 1573 1574 1574 1575 1576 1577 1577 1578 1579 1580 1580 1581 1582 1582 1583 1584
1559 1560 1560 1561 1562 1562 1563 1563 1563 1564 1564 1564 1564 1565 1565 1566 1566 1567 1567 1567 1568 1569 1569 1569 1570 1571 1571 1572 1573 1573 1574 1575 1575 1576 1577 1577 1578 1579 1580 1580 1581 1581 1582
1559 1560 1560 1561 1562 1562 1562 1563 1563 1563 1563 1563 1564 1564 1564 1565 1565 1565 1566 1566 1567 1567 1568 1568 1569 1569 1570 1570 1571 1572 1572 1573 1574 1574 1575 1576 1576 1577 1578 1578 1579 1579 1580
1559 1560 1560 1561 1561 1561 1562 1562 1562 1562 1563 1563 1563 1563 1563 1564 1564 1564 1565 1565 1565 1566 1566 1567 1567 1567 1568 1569 1569 1570 1570 1571 1571 1572 1573 1573 1574 1574 1575 1575 1576 1576 1577
1559 1559 1559 1560 1560 1560 1561 1561 1561 1561 1561 1562 1562 1562 1562 1562 1562 1562 1563 1563 1563 1564 1564 1565 1565 1565 1566 1566 1567 1568 1568 1568 1569 1569 1570 1571 1571 1572 1572 1572 1573 1573 1574
1558 1558 1558 1559 1559 1559 1559 1560 1560 1560 1560 1560 1560 1560 1560 1560 1560 1560 1561 1561 1561 1562 1562 1562 1563 1563 1564 1564 1565 1565 1566 1566 1567 1567 1567 1568 1568 1568 1569 1569 1570 1570 1570
1557 1557 1557 1558 1558 1558 1558 1558 1558 1558 1558 1558 1559 1558 1559 1560 1558 1558 1558 1558 1559 1559 1560 1560 1561 1561 1562 1562 1562 1563 1563 1563 1564 1564 1565 1565 1565 1565 1566 1566 1566 1566 1566
1556 1556 1556 1557 1557 1557 1556 1556 1556 1556 1556 1557 1557 1558 1557 1556 1557 1557 1557 1556 1557 1557 1558 1558 1559 1559 1559 1560 1560 1560 1561 1561 1561 1561 1561 1561 1562 1562 1562 1563 1563 1563 1563
1555 1555 1555 1555 1555 1555 1555 1555 1554 1554 1555 1554 1555 1555 1555 1555 1555 1555 1556 1555 1555 1555 1556 1556 1556 1557 1557 1557 1558 1558 1558 1558 1558 1558 1558 1558 1559 1559 1559 1559 1559 1559 1559
1554 1554 1554 1553 1553 1553 1553 1553 1552 1552 1552 1552 1552 1552 1552 1552 1553 1553 1553 1554 1554 1554 1554 1555 1555 1556 1556 1556 1556 1556 1556 1556 1556 1556 1556 1556 1556 1556 1556 1556 1556 1556 1556
1552 1552 1552 1552 1552 1551 1551 1551 1550 1550 1550 1549 1549 1549 1549 1550 1550 1550 1551 1552 1552 1553 1553 1554 1554 1554 1554 1554 1554 1554 1554 1554 1554 1554 1553 1553 1553 1553 1553 1553 1553 1553 1552
1551 1551 1550 1550 1550 1549 1549 1549 1548 1548 1548 1547 1547 1547 1547 1547 1548 1548 1548 1549 1550 1552 1552 1552 1553 1553 1553 1553 1553 1553 1553 1553 1552 1552 1552 1552 1551 1551 1550 1550 1550 1550 1549
1549 1549 1549 1549 1548 1548 1547 1547 1547 1546 1546 1545 1545 1545 1545 1545 1545 1546 1546 1547 1548 1550 1550 1551 1552 1552 1552 1552 1552 1552 1552 1551 1551 1551 1551 1550 1550 1549 1549 1548 1548 1547 1547
1548 1548 1548 1547 1547 1546 1546 1546 1545 1545 1544 1544 1543 1543 1543 1543 1543 1543 1544 1545 1546 1547 1549 1550 1550 1551 1551 1552 1552 1552 1551 1551 1551 1550 1550 1549 1549 1549 1548 1548 1547 1547 1546
1547 1546 1546 1546 1545 1545 1545 1544 1544 1543 1542 1542 1542 1541 1541 1541 1541 1542 1542 1543 1544 1545 1546 1548 1549 1550 1551 1551 1551 1551 1551 1551 1551 1551 1550 1550 1549 1548 1548 1547 1547 1546 1545
1546 1546 1546 1545 1545 1545 1544 1543 1543 1542 1541 1541 1540 1540 1539 1539 1539 1540 1540 1541 1542 1544 1544 1546 1548 1549 1550 1551 1551 1551 1552 1551 1551 1551 1551 1550 1549 1549 1548 1548 1547 1546 1545
1545 1545 1545 1545 1544 1544 1543 1542 1542 1541 1541 1540 1540 1539 1539 1539 1539 1539 1539 1540 1541 1542 1543 1544 1547 1549 1550 1551 1551 1552 1552 1552 1552 1552 1551 1551 1550 1550 1549 1548 1548 1547 1546
1545 1545 1544 1544 1544 1543 1543 1542 1541 1541 1540 1540 1539 1539 1539 1539 1538 1538 1539 1540 1541 1542 1543 1544 1546 1548 1549 1550 1551 1551 1552 1552 1552 1552 1552 1552 1551 1551 1550 1549 1548 1547 1546
1544 1544 1544 1543 1543 1543 1543 1542 1542 1541 1541 1540 1540 1539 1539 1539 1539 1539 1539 1540 1540 1541 1543 1544 1545 1547 1548 1550 1550 1551 1552 1552 1552 1553 1553 1552 1552 1551 1551 1550 1549 1548 1547
1543 1543 1543 1543 1543 1543 1543 1542 1542 1541 1541 1540 1540 1540 1539 1539 1539 1539 1540 1540 1541 1541 1542 1544 1545 1547 1548 1549 1550 1551 1551 1552 1552 1553 1553 1553 1552 1552 1551 1550 1549 1548 1547
1542 1542 1542 1542 1542 1542 1543 1542 1542 1541 1541 1541 1540 1540 1540 1540 1540 1540 1540 1541 1541 1542 1543 1544 1545 1546 1547 1549 1550 1551 1551 1551 1552 1553 1553 1553 1553 1552 1552 1551 1550 1549 1548
1540 1541 1542 1542 1542 1542 1543 1542 1542 1541 1541 1541 1541 1540 1540 1540 1540 1540 1541 1541 1542 1543 1544 1545 1545 1546 1547 1548 1549 1550 1551 1551 1551 1552 1552 1552 1553 1552 1552 1551 1551 1550 1549
1540 1541 1542 1542 1542 1542 1543 1542 1542 1542 1541 1541 1541 1541 1541 1541 1541 1541 1542 1542 1542 1543 1544 1545 1545 1547 1548 1549 1549 1550 1551 1551 1552 1552 1552 1552 1552 1552 1552 1552 1551 1550 1550
1540 1540 1541 1542 1542 1542 1542 1542 1542 1542 1542 1542 1542 1542 1541 1541 1541 1542 1542 1543 1543 1544 1545 1545 1546 1547 1548 1548 1549 1550 1550 1551 1551 1552 1552 1552 1552 1551 1551 1551 1551 1550 1550
1539 1540 1541 1541 1542 1542 1542 1542 1543 1542 1542 1542 1542 1542 1542 1542 1542 1543 1543 1543 1544 1544 1545 1546 1546 1547 1547 1548 1549 1550 1550 1550 1550 1551 1551 1551 1551 1551 1551 1551 1550 1550 1549